Wind_Speed
15 15 15 16 17 17 16 15 14 13 13 13 14 14 14 14 14 13 12 12 12 11 11 11 10 9 9 9 9 10 10 11 12 13 14 15 16 17 18 19 19 19 20 20
15 16 16 16 16 16 16 16 15 15 14 15 15 15 15 15 15 14 14 13 13 13 12 12 12 11 11 11 11 12 12 13 14 15 16 17 18 19 20 20 21 21 21 22
16 17 17 16 15 15 15 15 16 16 15 17 17 16 16 17 16 15 15 15 15 14 14 13 13 13 13 13 13 14 15 16 16 17 18 19 20 21 22 22 23 23 24 24
16 17 17 14 16 16 15 15 16 16 17 17 17 18 18 18 17 17 17 17 16 15 15 15 15 15 15 15 16 16 17 18 18 20 21 21 22 23 23 24 25 25 26 27
18 18 16 15 16 16 16 15 16 16 17 18 18 18 18 19 18 18 18 18 17 17 17 16 16 17 17 17 18 19 20 20 21 22 23 24 24 25 26 27 27 28 29 31
19 19 17 15 17 18 18 15 15 17 18 19 19 18 18 19 19 19 19 19 18 18 18 18 18 18 19 20 20 21 22 23 24 25 25 26 26 28 29 30 31 32 32 34
20 20 17 17 19 19 18 15 17 18 19 19 19 18 19 20 20 20 19 19 19 19 19 19 20 20 21 22 23 24 25 25 26 26 27 28 29 30 31 32 33 35 35 36
22 21 17 18 20 20 19 19 19 20 20 20 20 20 20 21 21 21 20 20 20 20 21 21 22 23 24 25 25 26 27 27 28 29 30 31 32 33 33 34 36 37 38 39
24 22 21 21 21 22 21 22 22 22 22 22 22 22 22 22 22 22 22 22 22 22 23 24 25 25 26 27 27 28 29 30 31 32 33 33 34 35 36 37 38 39 40 41
26 24 24 24 24 24 24 24 24 24 24 24 23 23 24 24 24 24 24 24 25 25 26 26 27 28 29 29 30 31 32 33 34 34 35 36 37 38 39 40 41 42 43 44
28 27 27 27 27 27 27 27 26 27 26 25 25 25 25 26 26 26 27 27 27 28 28 29 30 30 31 32 33 33 34 35 36 37 38 39 40 41 41 42 43 44 45 46
30 30 30 29 29 30 30 29 29 29 28 28 28 28 28 28 28 28 29 29 30 30 31 31 32 33 34 35 35 36 37 38 38 39 40 41 42 43 43 44 45 47 48 49
33 32 32 32 32 32 32 32 31 31 31 31 31 31 31 31 31 31 31 31 32 32 33 34 34 35 37 38 38 39 39 40 41 42 43 44 44 45 45 46 48 49 51 52
35 35 34 34 34 34 35 35 34 33 33 33 33 33 33 33 33 33 34 34 35 35 35 36 37 38 39 40 41 41 42 43 44 45 46 46 47 47 48 49 50 51 52 54
37 37 36 36 36 36 36 36 36 35 35 35 36 36 36 36 36 37 37 37 38 38 38 39 40 41 42 43 43 44 45 46 47 47 47 48 49 49 50 51 52 53 54 56
38 39 39 38 38 38 38 38 37 37 37 38 38 38 39 39 40 40 40 40 41 41 42 42 43 43 44 45 46 47 47 48 48 48 49 50 51 52 52 53 54 55 57 58
40 40 40 40 39 39 39 39 39 39 39 40 40 41 42 42 42 42 42 43 43 44 44 45 45 46 47 47 47 48 48 49 49 50 51 52 52 53 54 55 56 58 59 61
40 41 41 42 41 41 41 40 40 40 40 40 41 42 42 43 43 44 44 45 45 46 46 46 47 48 48 48 49 50 50 51 52 53 53 53 54 55 56 58 59 61 62 63
40 41 41 42 42 42 42 42 42 42 42 42 43 44 44 44 45 45 46 46 47 47 47 48 49 49 50 51 52 53 53 54 55 55 55 55 56 58 59 61 62 63 65 66
41 42 42 42 42 43 43 43 43 44 44 44 44 44 44 45 45 46 46 47 47 47 48 49 50 51 52 53 54 55 55 55 55 56 56 57 59 60 61 63 64 66 66 67
43 43 43 43 43 43 44 44 44 44 44 44 45 45 46 46 47 47 48 48 49 50 51 51 52 52 53 54 55 55 56 56 57 58 59 60 61 62 63 65 66 67 67 68
43 44 44 44 44 44 44 44 45 45 45 45 46 46 47 48 48 49 50 50 51 52 52 52 53 54 55 55 56 56 57 58 58 59 60 61 62 64 65 66 67 67 68 68
44 44 45 45 44 44 45 45 46 46 46 47 48 48 49 49 50 51 51 51 52 53 53 54 54 55 56 56 57 57 58 59 60 61 62 63 64 65 66 67 67 67 68 68
45 45 46 46 46 46 46 46 47 47 48 48 49 50 50 51 51 52 52 52 53 54 54 55 56 57 57 58 58 59 59 60 61 62 63 64 65 66 66 67 67 66 67 67
46 46 47 48 48 48 48 48 48 49 49 50 50 51 51 52 52 53 53 54 55 55 56 57 58 59 59 59 59 60 60 61 62 63 64 64 65 65 66 66 66 65 65 64
47 47 48 49 49 49 49 50 50 50 51 51 52 52 52 53 53 54 54 55 56 57 58 58 59 59 59 59 60 60 61 62 62 63 63 64 64 64 64 64 64 63 63 62
47 48 49 50 50 51 51 51 51 51 52 52 52 53 53 54 55 55 56 56 57 58 58 58 59 59 59 59 60 60 61 61 61 61 62 62 63 63 63 62 62 61 61 60
Wind_Direction
205 209 213 216 219 219 219 220 220 213 213 215 221 225 226 225 224 222 225 228 229 230 233 237 241 244 252 259 266 275 282 288 295 300 305 308 311 313 315 317 319 320 323 325
208 215 217 218 221 223 223 223 221 219 216 218 222 225 226 228 225 226 230 233 234 236 239 242 245 249 256 261 268 275 281 288 292 296 300 304 306 309 311 314 315 317 318 319
214 220 221 218 221 225 224 223 224 225 224 226 228 228 231 232 229 231 234 237 239 242 244 246 249 253 258 264 270 276 281 286 290 295 299 302 304 307 309 311 312 312 313 314
221 224 226 222 227 228 229 228 228 227 226 226 228 231 234 234 235 237 240 242 244 246 247 249 251 256 260 266 271 277 282 286 289 293 297 300 302 305 306 307 307 307 308 309
231 231 230 229 232 235 236 234 232 231 230 230 234 236 237 238 239 242 244 245 246 248 250 252 255 259 263 268 273 279 282 286 289 292 295 298 301 303 304 305 305 305 305 306
237 239 235 232 237 239 240 237 235 234 234 236 237 238 238 240 242 244 246 248 250 251 253 255 258 262 266 271 276 280 283 286 289 292 293 296 299 301 302 303 304 304 303 304
242 243 238 237 239 240 240 236 235 237 237 237 239 240 241 244 247 249 251 252 253 255 256 258 262 266 270 274 278 281 284 287 289 291 292 295 297 299 300 301 302 303 303 303
244 245 241 239 240 240 239 237 239 241 242 241 242 244 246 248 250 253 254 255 256 258 260 263 266 270 273 276 279 282 285 287 289 291 292 294 297 298 299 300 302 303 303 302
245 246 245 243 242 241 241 240 241 244 245 245 247 249 249 251 252 253 254 255 257 260 263 266 269 272 275 277 280 283 285 288 289 291 292 294 296 297 298 299 301 302 302 302
246 247 248 247 245 245 243 243 244 246 248 249 250 251 251 252 253 254 255 257 260 263 265 268 270 273 276 278 281 283 286 288 290 291 293 294 296 297 298 299 300 301 302 303
248 247 247 247 248 248 247 247 248 248 250 252 252 252 253 254 256 257 259 261 263 266 268 270 272 274 276 279 281 284 286 288 290 291 293 294 295 297 297 298 299 301 302 303
249 249 249 248 248 248 249 250 251 250 251 252 254 255 255 257 258 260 261 263 266 268 270 272 274 276 278 280 282 284 286 289 290 292 293 294 295 296 297 298 299 301 302 303
251 250 251 251 251 251 251 252 253 253 253 254 255 257 257 258 260 262 264 266 268 270 273 275 276 278 279 281 283 285 287 289 290 291 292 293 295 296 297 298 299 301 302 303
252 252 252 252 252 252 252 254 254 255 256 256 257 258 259 260 262 264 266 267 270 272 274 276 278 279 281 282 283 285 287 289 290 291 292 292 294 295 296 297 299 301 302 303
252 253 253 252 252 253 254 255 255 255 256 257 259 260 261 262 264 265 267 268 271 273 274 276 278 280 281 282 284 285 287 288 290 290 291 291 293 294 296 297 299 300 301 302
253 254 254 254 254 255 255 256 257 257 258 259 260 261 262 264 265 267 269 270 272 273 275 277 278 279 281 282 284 286 287 287 288 289 290 291 293 294 296 297 299 300 301 302
253 254 255 255 255 256 257 258 258 258 259 260 261 262 263 265 266 268 269 271 272 274 275 277 278 280 281 282 283 285 286 287 288 289 291 292 294 295 296 297 299 300 301 302
254 255 255 256 256 256 257 258 259 260 261 262 262 264 265 266 267 268 269 271 272 274 276 277 278 280 281 282 283 285 286 287 288 290 291 292 293 295 296 297 298 300 301 302
254 255 256 257 257 257 258 259 260 261 261 263 264 265 266 267 268 269 270 272 273 275 276 277 278 280 281 282 284 285 286 287 289 290 290 292 293 294 296 297 299 300 302 303
254 255 257 258 258 259 259 260 261 262 263 264 264 265 266 267 268 270 271 272 274 275 276 277 279 280 282 283 285 286 287 288 289 289 290 292 293 295 296 298 299 300 302 302
255 256 257 259 260 260 261 262 262 263 264 264 265 266 267 268 269 270 272 273 274 275 276 278 280 281 282 283 285 286 287 288 289 290 291 292 294 295 297 298 299 301 301 302
256 256 258 259 260 261 262 262 263 264 264 265 266 267 267 268 270 271 272 273 274 276 277 278 280 281 282 284 285 286 287 288 289 290 291 293 294 295 297 298 299 300 301 302
256 257 258 259 260 261 262 263 264 264 265 266 267 267 268 269 270 272 273 274 275 276 278 279 280 281 282 284 285 286 288 289 290 291 292 293 294 296 297 298 299 300 301 302
255 257 258 259 260 261 263 263 264 264 265 266 267 268 269 270 271 272 273 274 275 277 279 280 280 282 283 284 286 287 288 289 290 291 292 294 295 296 297 298 299 300 301 302
255 256 257 258 259 261 262 263 264 265 266 267 268 269 270 271 271 272 273 274 276 277 278 279 280 282 283 285 286 288 289 290 291 292 293 294 295 296 297 298 299 300 301 302
255 256 257 258 260 261 263 264 265 266 267 268 269 269 270 271 272 273 274 275 276 277 279 280 281 283 284 285 287 288 289 290 291 292 293 294 295 296 298 298 299 300 302 303
256 257 258 259 260 262 263 264 265 266 267 268 269 270 271 272 273 274 275 276 277 279 280 281 283 284 285 286 287 289 289 290 291 292 293 294 295 296 298 298 299 300 302 302
Height
5822 5825 5827 5829 5832 5834 5837 5840 5842 5845 5846 5849 5850 5852 5854 5855 5857 5858 5860 5861 5863 5864 5865 5865 5866 5867 5868 5868 5868 5868 5868 5868 5867 5866 5865 5864 5862 5860 5858 5856 5853 5851 5848 5846
5821 5823 5825 5827 5830 5832 5834 5837 5839 5841 5844 5846 5847 5849 5851 5852 5854 5856 5857 5858 5860 5861 5861 5862 5863 5864 5864 5865 5865 5865 5864 5864 5863 5863 5861 5860 5858 5857 5854 5852 5849 5847 5844 5842
5820 5821 5823 5826 5828 5830 5832 5834 5836 5838 5841 5842 5844 5846 5848 5849 5851 5852 5854 5855 5856 5857 5858 5859 5859 5860 5860 5861 5861 5861 5861 5860 5859 5858 5857 5856 5854 5852 5850 5847 5845 5842 5840 5837
5817 5820 5821 5827 5826 5827 5829 5831 5833 5835 5836 5839 5841 5842 5844 5845 5847 5849 5850 5851 5852 5853 5854 5855 5855 5856 5856 5857 5857 5856 5856 5855 5854 5853 5852 5850 5848 5846 5844 5842 5839 5837 5834 5831
5814 5816 5819 5822 5823 5824 5825 5828 5829 5831 5832 5834 5836 5838 5840 5841 5843 5844 5846 5847 5848 5849 5849 5850 5851 5851 5852 5852 5852 5851 5851 5850 5849 5848 5846 5844 5842 5840 5838 5835 5833 5830 5827 5825
5811 5813 5816 5820 5820 5820 5823 5824 5826 5827 5828 5830 5831 5834 5836 5837 5838 5839 5841 5842 5843 5844 5844 5845 5846 5846 5846 5846 5846 5846 5845 5844 5843 5841 5840 5838 5836 5833 5831 5828 5825 5822 5819 5816
5807 5809 5812 5815 5815 5817 5820 5823 5822 5823 5824 5825 5827 5830 5832 5832 5834 5835 5836 5837 5838 5838 5839 5840 5840 5841 5841 5840 5840 5839 5838 5837 5836 5834 5832 5831 5828 5826 5823 5820 5817 5814 5811 5807
5802 5804 5810 5810 5811 5813 5815 5816 5817 5818 5819 5821 5823 5824 5826 5827 5828 5829 5831 5832 5832 5833 5834 5834 5834 5835 5834 5834 5833 5832 5831 5829 5828 5826 5824 5822 5820 5817 5815 5812 5808 5805 5801 5797
5798 5802 5803 5804 5805 5807 5809 5810 5812 5813 5814 5816 5818 5819 5820 5821 5823 5824 5825 5826 5826 5827 5827 5828 5828 5827 5827 5826 5825 5824 5823 5821 5820 5818 5816 5813 5811 5808 5805 5802 5799 5795 5791 5788
5792 5795 5796 5798 5799 5801 5802 5804 5806 5807 5809 5810 5812 5813 5814 5815 5816 5817 5818 5819 5819 5820 5820 5820 5820 5820 5819 5818 5817 5816 5814 5812 5811 5809 5806 5804 5801 5798 5795 5792 5788 5784 5780 5776
5785 5788 5789 5791 5792 5794 5796 5797 5799 5801 5802 5804 5805 5806 5807 5808 5809 5810 5811 5812 5812 5812 5812 5812 5812 5811 5810 5809 5808 5807 5805 5803 5801 5799 5796 5793 5790 5787 5784 5780 5776 5773 5768 5764
5778 5780 5781 5784 5785 5787 5789 5790 5792 5793 5795 5796 5797 5799 5800 5801 5801 5802 5803 5803 5804 5804 5804 5803 5803 5802 5801 5800 5799 5797 5795 5793 5791 5788 5785 5782 5779 5776 5772 5768 5764 5760 5755 5751
5769 5771 5773 5775 5777 5779 5780 5782 5783 5785 5787 5788 5789 5790 5791 5792 5793 5794 5794 5795 5795 5794 5794 5794 5793 5792 5791 5789 5788 5786 5784 5782 5779 5777 5774 5771 5767 5764 5760 5756 5751 5747 5742 5737
5759 5761 5763 5766 5768 5769 5771 5773 5774 5776 5778 5779 5780 5781 5782 5783 5784 5784 5785 5785 5785 5784 5784 5783 5782 5781 5780 5778 5777 5775 5773 5770 5767 5764 5761 5758 5755 5751 5747 5743 5739 5734 5728 5723
5749 5751 5753 5755 5757 5759 5761 5763 5765 5767 5768 5769 5770 5771 5772 5773 5774 5774 5774 5774 5774 5774 5773 5772 5771 5770 5768 5766 5764 5762 5760 5757 5754 5751 5748 5745 5741 5737 5734 5729 5725 5720 5715 5709
5739 5740 5742 5745 5747 5749 5751 5753 5754 5756 5757 5758 5760 5760 5761 5762 5762 5763 5763 5763 5762 5762 5761 5760 5759 5757 5755 5754 5752 5749 5747 5744 5741 5738 5734 5731 5727 5723 5719 5715 5710 5705 5700 5694
5728 5730 5732 5734 5736 5738 5740 5741 5743 5744 5745 5747 5748 5749 5749 5750 5750 5751 5751 5750 5750 5749 5748 5747 5746 5744 5742 5740 5738 5736 5733 5730 5727 5724 5720 5717 5713 5709 5704 5700 5695 5690 5684 5678
5716 5719 5720 5722 5724 5726 5728 5730 5731 5732 5734 5735 5735 5736 5737 5737 5738 5738 5738 5737 5736 5736 5735 5733 5732 5730 5728 5726 5724 5721 5719 5716 5712 5709 5705 5702 5698 5693 5689 5684 5679 5673 5668 5661
5704 5707 5709 5710 5712 5714 5716 5717 5719 5720 5721 5722 5723 5723 5724 5724 5724 5724 5724 5723 5723 5722 5721 5719 5718 5716 5714 5712 5709 5707 5704 5701 5697 5694 5690 5686 5682 5677 5672 5667 5662 5656 5650 5644
5692 5694 5696 5698 5700 5702 5703 5705 5706 5707 5708 5709 5709 5710 5710 5711 5710 5710 5710 5709 5709 5708 5706 5704 5703 5701 5699 5696 5694 5691 5688 5685 5681 5678 5674 5670 5665 5661 5655 5650 5644 5638 5632 5625
5680 5682 5684 5686 5687 5689 5690 5691 5692 5693 5694 5695 5695 5696 5696 5696 5696 5696 5695 5695 5695 5693 5691 5690 5688 5686 5684 5681 5678 5675 5672 5668 5665 5661 5657 5653 5648 5643 5638 5632 5626 5620 5613 5606
5666 5668 5670 5672 5674 5675 5677 5677 5678 5679 5680 5681 5681 5681 5681 5682 5681 5681 5681 5680 5679 5677 5676 5674 5672 5670 5667 5665 5662 5659 5655 5652 5648 5644 5640 5635 5630 5625 5620 5614 5607 5601 5594 5587
5653 5655 5657 5659 5660 5662 5663 5663 5664 5665 5666 5666 5667 5667 5667 5667 5666 5666 5666 5665 5663 5661 5660 5658 5656 5654 5651 5648 5645 5642 5638 5635 5631 5626 5622 5617 5612 5607 5601 5595 5588 5582 5575 5568
5639 5641 5643 5644 5646 5647 5648 5649 5650 5650 5651 5651 5651 5651 5651 5651 5651 5650 5649 5648 5647 5645 5644 5642 5639 5637 5634 5631 5628 5625 5621 5617 5613 5608 5603 5599 5593 5587 5582 5576 5569 5563 5556 5550
5624 5626 5627 5629 5631 5632 5633 5634 5635 5635 5636 5636 5636 5636 5635 5635 5635 5634 5633 5632 5630 5629 5627 5625 5622 5619 5616 5613 5610 5607 5603 5599 5594 5590 5585 5580 5574 5569 5563 5557 5551 5544 5538 5531
5609 5611 5612 5614 5615 5616 5617 5618 5619 5619 5619 5620 5620 5619 5619 5618 5618 5617 5616 5615 5613 5612 5610 5607 5604 5602 5599 5595 5592 5588 5584 5580 5575 5571 5566 5561 5556 5550 5545 5539 5532 5526 5520 5514
5594 5596 5597 5598 5600 5601 5601 5602 5602 5603 5603 5603 5603 5602 5602 5601 5600 5599 5598 5597 5595 5593 5591 5589 5586 5583 5580 5577 5574 5570 5566 5561 5557 5552 5548 5543 5538 5532 5527 5521 5515 5509 5503 5496